THOR ABLESTAR DEB, 130

Orbit data source: Space-Track

THOR ABLESTAR DEB, 130 is space debris in LEO originally from a launch on Thu, 29 Jun 1961 UTC launched from the Air Force Eastern Test Range (AFETR). Debris objects in space refer to the collection of defunct objects orbiting the Earth. Examples of debris include non-operational satellites, rocket bodies, and fragments generated from explosions, collisions, or faulty payload assembly.

Loading next visibility...
Identifier
130, 1961-015Q
Orbit
LEO
Last TLE update
9 hours ago
Origin
Manufacturer
Unknown
Mission
Spacecraft
Bus & Motor
Unknown
Mass
Unknown
Launch date (UTC)
1961-06-29 (64 years ago)
Launch vehicle
Unknown
Launch site
Air Force Eastern Test Range (AFETR)
Object type
Payload
Rocket body
Debris
Shape & HBR
Unknown
Radar Cross Section
0.490 m², Medium (>0.1 m² and < 1m²)

Expand to show TLE details & history

TLE from 9 hours ago
0 THOR ABLESTAR DEB
1 00130U 61015Q   25188.90176940  .00000041  00000-0  79622-4 0  9992
2 00130  66.7715  25.5336 0084864 176.4175 183.7535 13.99317625263282
Epoch: 2025-07-07T21:38Z
TLE epoch observation values (Epoch: 2025-07-07T21:38:32.876Z)
Latitude
0.00003°
Longitude
134.79218°
Altitude
959.851 km
Speed
7.341 km/s
True Right ascension
01h 42m 08s
True Declination
0° 00' 00"
Sunlit
Object was in daylight at epoch
Visualization orbit readout
Latitude
64.22089°
Longitude
-108.26995°
Altitude
889.277 km
Speed
7.423 km/s
Apparent Right ascension
07h 50m 47s
Apparent Declination
17° 53' 17"
Sunlit
Object is in daylight
Visualization observer readout
Local Sidereal Time
18:47:54
Azimuth
342.609° N
Elevation
-30.365°
Doppler factor
1
Orbital elements
Apogee altitude
956.268 km
Perigee altitude
832.83 km
Semi-major axis
7,272.686 km
Eccentricity
0.00849
Inclination
66.7715°
RAAN
25.5336°
Arg. of periapsis
176.4175°
True anomaly
Unknown
Mean anomaly
183.7535°
Eccentric anomaly
Unknown
Mean motion
3.49946 °/min
Orbital period
102.87 mins
BSTAR
0.000079622
Loading maneuver chart data...
Loading SW <> Apogee altitude chart data...

THOR ABLESTAR DEB Visibility forecast

Observer location: undefined°, undefined°

Span
Click to sort rows by Start time (UTC) header in descending order
Start Az.
Max El. time (UTC)
Max El. Az.
Max El.
End time (UTC)
End Az.
6 mins2025-07-08 13:12:28.183Z136.506° SSE2025-07-08 13:15:28.183Z106.388° ESE15.387°2025-07-08 13:18:28.183Z74.553° E
10 mins2025-07-08 14:56:28.183Z214.318° SW2025-07-08 15:00:28.183Z260.361° W44.13°2025-07-08 15:06:28.183Z26.477° NE
5 mins2025-07-08 16:45:28.183Z296.178° NW2025-07-08 16:47:28.183Z318.303° NNW15.626°2025-07-08 16:50:28.183Z350.617° N
5 mins2025-07-08 22:12:28.183Z13.908° NNE2025-07-08 22:14:28.183Z37.5° NE16.502°2025-07-08 22:17:28.183Z73.416° E
9 mins2025-07-08 23:57:28.183Z329.907° NNW2025-07-09 00:01:28.183Z199.95° SSW44.911°2025-07-09 00:06:28.183Z154.191° SSE
|